This is the latest recevied weather packets stored in our database for station/object SP2FH-13. If no packets are shown the sender has not sent any weather packets the latest 10 day(s).
| Time | Temp. | Humidity | Pressure | Rain* | Wind** | Luminosity | Snow |
|---|---|---|---|---|---|---|---|
| 1777642441 | 21.11° C | 34% | 1014.5 hPa | - | - | 521 W/m² | - |
| 1777642141 | 21.11° C | 33% | 1014.5 hPa | - | - | 533 W/m² | - |
| 1777641840 | 20.56° C | 33% | 1014.4 hPa | - | - | 544 W/m² | - |
| 1777641541 | 20.56° C | 36% | 1014.5 hPa | - | - | 555 W/m² | - |
| 1777641237 | 21.11° C | 35% | 1014.6 hPa | - | - | 568 W/m² | - |
| 1777640936 | 21.11° C | 34% | 1014.7 hPa | - | - | 582 W/m² | - |
| 1777640635 | 21.11° C | 34% | 1014.7 hPa | - | - | 591 W/m² | - |
| 1777640334 | 20.56° C | 34% | 1014.7 hPa | - | - | 603 W/m² | - |
| 1777640033 | 20.56° C | 34% | 1014.8 hPa | - | - | 609 W/m² | - |
| 1777639732 | 21.67° C | 32% | 1014.8 hPa | - | - | 621 W/m² | - |
| 1777639431 | 21.67° C | 32% | 1015 hPa | - | - | 632 W/m² | - |
| 1777639130 | 21.11° C | 32% | 1015 hPa | - | - | 639 W/m² | - |
| 1777638829 | 20.56° C | 33% | 1015 hPa | - | - | 642 W/m² | - |
| 1777638528 | 20.56° C | 31% | 1015.1 hPa | - | - | 644 W/m² | - |
| 1777638227 | 20° C | 35% | 1015.1 hPa | - | - | 652 W/m² | - |
| 1777637926 | 20° C | 34% | 1015.2 hPa | - | - | 665 W/m² | - |
| 1777637625 | 20.56° C | 33% | 1015.2 hPa | - | - | 671 W/m² | - |
| 1777637323 | 20° C | 35% | 1015.2 hPa | - | - | 680 W/m² | - |
| 1777637023 | 19.44° C | 37% | 1015.2 hPa | - | - | 688 W/m² | - |
| 1777636721 | 20° C | 36% | 1015.3 hPa | - | - | 698 W/m² | - |
| 1777636420 | 20° C | 36% | 1015.4 hPa | - | - | 707 W/m² | - |
| 1777636119 | 19.44° C | 37% | 1015.4 hPa | - | - | 707 W/m² | - |
| 1777635818 | 20.56° C | 38% | 1015.3 hPa | - | - | 710 W/m² | - |
| 1777635517 | 20° C | 39% | 1015.4 hPa | - | - | 711 W/m² | - |
| 1777635216 | 19.44° C | 37% | 1015.4 hPa | - | - | 718 W/m² | - |
* Rain since midnight (hover to see other rain measurements)
** Current wind speed in m/s (hover to see current wind gust speed)